Home   Weather   Bukavu   Past weeks

Flag for Congo Dem. Rep. Past Weather in Bukavu, Congo Dem. Rep. — Yesterday and Last 2 Weeks

Now
70 °F

Passing clouds.


Feels Like: 70 °F
Forecast: 49 / 74 °F
Wind: No wind

Location: Kigali Airport

Current Time: Jun 28, 2017 at 12:40:35 am

Latest Report: Jun 28, 2017 at 12:00 am


Visibility: N/A

Pressure: 30.15 "Hg (24.72 "Hg at 1710m altitude)

Humidity: 53%

Dew Point: 52 °F

Location of BukavuLocation

Past Weather in Bukavu — Graph

°F

Bukavu Temperature Yesterday

Maximum temperature yesterday: 81 °F (at 2:00 pm)
Minimum temperature yesterday: 61 °F (at 5:30 am)
Average temperature yesterday: 72 °F

High & Low Weather Summary for the Past Weeks

 TemperatureHumidityPressure
High84 °F (Jun 22, 3:00 pm)88% (Jun 17, 6:30 am)30.24 "Hg (Jun 17, 6:30 am)
Low59 °F (Jun 25, 6:00 am)34% (Jun 20, 3:00 pm)30.04 "Hg (Jun 17, 3:00 pm)
Average72 °F56%30.13 "Hg
* Reported Jun 12 11:00 pm — Jun 27 11:30 pm, Bukavu. Weather by CustomWeather, © 2017

Note: Actual official high and low records may vary slightly from our data, if they occured in-between our weather recording intervals... More about our weather records

Advertising

Bukavu Weather History for the Previous 24 Hours

Scroll right to see more
 ConditionsComfort  
Time TempWeatherWind HumidityBarometerVisibility
11:30 pm
Tue, Jun 27
70 °FPassing clouds.3 mph53%30.15 "HgN/A
11:00 pm70 °FPassing clouds.7 mph53%30.12 "HgN/A
10:30 pm72 °FPassing clouds.5 mph50%30.12 "HgN/A
10:00 pm72 °FPassing clouds.3 mph53%30.15 "HgN/A
9:30 pm72 °FPassing clouds.3 mph53%30.12 "HgN/A
9:00 pm73 °FPassing clouds.5 mph47%30.12 "HgN/A
8:30 pm75 °FPassing clouds.3 mph44%30.12 "HgN/A
8:00 pm75 °FPassing clouds.5 mph44%30.12 "HgN/A
7:30 pm75 °FPassing clouds.2 mph47%30.09 "HgN/A
7:00 pm75 °FPassing clouds.3 mph44%30.09 "HgN/A
6:30 pm75 °FPassing clouds.3 mph44%30.07 "HgN/A
6:00 pm77 °FPassing clouds.5 mph42%30.07 "HgN/A
5:00 pm79 °FScattered clouds.7 mph39%30.07 "HgN/A
4:30 pm81 °FScattered clouds.5 mph37%30.07 "HgN/A
4:00 pm81 °FScattered clouds.12 mph37%30.07 "HgN/A
3:30 pm81 °FScattered clouds.3 mph37%30.07 "HgN/A
3:00 pm81 °FScattered clouds.8 mph37%30.07 "HgN/A
2:30 pm81 °FScattered clouds.8 mph37%30.09 "HgN/A
2:00 pm81 °FScattered clouds.9 mph39%30.09 "HgN/A
1:30 pm79 °FScattered clouds.9 mph42%30.12 "HgN/A
1:00 pm79 °FScattered clouds.6 mph42%30.12 "HgN/A
12:30 pm77 °FScattered clouds.9 mph44%30.15 "HgN/A
12:00 pm77 °FScattered clouds.9 mph44%30.15 "HgN/A
11:30 am75 °FScattered clouds.14 mph47%30.18 "HgN/A
11:00 am75 °FScattered clouds.13 mph47%30.18 "HgN/A
10:30 am73 °FScattered clouds.13 mph50%30.18 "HgN/A
10:00 am72 °FPassing clouds.10 mph53%30.21 "HgN/A
9:30 am72 °FPassing clouds.8 mph53%30.21 "HgN/A
9:00 am72 °FPassing clouds.8 mph53%30.21 "HgN/A
8:30 am70 °FPassing clouds.6 mph57%30.21 "HgN/A
8:00 am70 °FPassing clouds.No wind60%30.18 "HgN/A
7:30 am68 °FScattered clouds.3 mph64%30.18 "HgN/A
7:00 am63 °FScattered clouds.3 mph77%30.18 "HgN/A
6:30 am61 °FScattered clouds.5 mph77%30.18 "HgN/A
6:00 am63 °FPassing clouds.3 mph73%30.15 "HgN/A
5:30 am61 °FPassing clouds.2 mph77%30.15 "HgN/A
5:00 am63 °FPassing clouds.3 mph73%30.15 "HgN/A
4:30 am63 °FPassing clouds.5 mph73%30.12 "HgN/A
4:00 am64 °FPassing clouds.6 mph68%30.12 "HgN/A
3:30 am63 °FPassing clouds.3 mph73%30.12 "HgN/A
3:00 am63 °FPassing clouds.3 mph73%30.12 "HgN/A
2:00 am64 °FClear.3 mph68%30.12 "Hg10 mi
1:30 am66 °FClear.2 mph64%30.12 "Hg10 mi
1:00 am68 °FClear.5 mph56%30.15 "Hg10 mi
12:30 am68 °FClear.3 mph60%30.15 "Hg10 mi
12:00 am70 °FClear.3 mph53%30.15 "Hg10 mi
Weather by CustomWeather, © 2017

See weather overviewHow to use our weather pages